Regional Weather Roundup
Issued by NWS

Home | Current Version | Previous Version | Graphics & Text | Print | Product List | Glossary On
Versions: 1 2 3 4 5 6 7 8 9 10 11 12 13 14 15 16 17 18 19 20 21 22 23 24 25 26 27 28 29 30 31 32 33 34 35 36 37 38 39 40 41 42 43 44 45 46 47 48 49 50
413
ASUS43 KOAX 020510
RWRNE

WEATHER ROUNDUP FOR NEBRASKA
NATIONAL WEATHER SERVICE OMAHA NE
1200 AM CDT MON MAY 02 2016

NOTES: SATELLITE DATA IS BEING USED TO AUGMENT CLOUD COVER ABOVE
       12000 FEET.
       "FAIR" INDICATES FEW OR NO CLOUDS BELOW 12,000 FEET WITH NO
       SIGNIFICANT WEATHER AND/OR OBSTRUCTIONS TO VISIBILITY.

  * THESE STATIONS DO NOT REPORT WEATHER SUCH AS RAIN...SNOW OR FOG.

NEZ001>004-019>022-054>056-020600-
NEBRASKA PANHANDLE

CITY           SKY/WX    TMP DP  RH WIND       PRES   REMARKS
SCOTTSBLUFF    CLEAR     37  31  78 NW10      30.27S WCI  30
ALLIANCE       CLEAR     31  28  89 W3        30.25S
CHADRON        CLEAR     35  31  85 CALM      30.26R
KIMBALL        CLEAR     31  27  83 NW9       30.28S WCI  23
SIDNEY         CLOUDY    36  30  79 W8        30.28R WCI  30
$$

NEZ057>060-069>072-079>082-020600-
SOUTHWEST NEBRASKA

CITY           SKY/WX    TMP DP  RH WIND       PRES   REMARKS
NORTH PLATTE   CLEAR     37  33  85 NW9       30.24S WCI  30
IMPERIAL       CLEAR     39  32  76 NW10      30.25S WCI  32
LEXINGTON      CLEAR     38  36  92 NW5       30.23R WCI  35
MCCOOK         CLOUDY    38  35  89 CALM      30.23R
OGALLALA       MOCLDY    35  32  88 W5        30.27S WCI  31
$$

NEZ005>010-023>029-035>040-094-020600-
NORTH CENTRAL NEBRASKA

CITY           SKY/WX    TMP DP  RH WIND       PRES   REMARKS
VALENTINE      CLEAR     35  30  82 W3        30.24S
AINSWORTH      CLEAR     38  32  79 W6        30.23S WCI  33
BROKEN BOW     CLEAR     35  32  88 N5        30.22S WCI  31
O`NEILL        CLEAR     42  35  76 W6        30.21S
ORD            CLEAR     38  34  85 NW6       30.20S WCI  33
THEDFORD       CLEAR     37  32  81 W3        30.25S
$$

NEZ041-046>049-061>064-073>077-083>087-020600-
SOUTH CENTRAL NEBRASKA

CITY           SKY/WX    TMP DP  RH WIND       PRES   REMARKS
GRAND ISLAND   CLOUDY    46  42  86 NW6       30.20S
AURORA         CLOUDY    46  44  94 NW3       30.20S
HASTINGS       CLOUDY    46  41  82 NW6       30.20S
HEBRON         CLOUDY    47  44  88 NW3       30.20S
HOLDREGE       CLOUDY    38  36  92 CALM      30.22S
KEARNEY *      CLOUDY    39  37  93 NW6       30.22S WCI  35
YORK           CLOUDY    46  45  93 NW5       30.20R
$$

NEZ011>018-030>034-042>045-020600-
NORTHEAST NEBRASKA

CITY           SKY/WX    TMP DP  RH WIND       PRES   REMARKS
NORFOLK        CLEAR     40  37  89 W5        30.18F
ALBION         PTCLDY    40  37  87 N3        30.19F
BLAIR          CLOUDY    49  44  82 NW5       30.14S
COLUMBUS *     CLOUDY    45  36  70 NW6       30.19R
FREMONT        MOCLDY    46  43  90 NW5       30.16S
TEKAMAH        CLOUDY    48  43  82 NW7       30.15F
WAYNE          CLEAR     37  36  97 CALM      30.19S
$$

NEZ050>053-065>068-078-088>093-020600-
SOUTHEAST NEBRASKA

CITY           SKY/WX    TMP DP  RH WIND       PRES   REMARKS
LINCOLN        CLOUDY    49  43  80 NW6       30.19R
OMAHA EPPLEY   MOCLDY    48  46  93 CALM      30.15R
BEATRICE       CLOUDY    47  44  90 W5        30.18R
FALLS CITY     CLOUDY    48  43  82 NW5       30.16R
NEBRASKA CITY  MOCLDY    46  46 100 NW5       30.16S
PLATTSMOUTH    CLOUDY    46  44  93 W5        30.15F
$$

NEZ044-045-051>053-067-020600-
OMAHA AREA

CITY           SKY/WX    TMP DP  RH WIND       PRES   REMARKS
OMAHA EPPLEY   MOCLDY    48  46  93 CALM      30.15R
BLAIR          CLOUDY    49  44  82 NW5       30.14S
FREMONT        MOCLDY    46  43  90 NW5       30.16S
MILLARD        CLOUDY    48  45  87 W5        30.15S
OFFUTT AFB     CLOUDY    48  46  93 W3        30.15R
PLATTSMOUTH    CLOUDY    46  44  93 W5        30.15F
WAHOO          MOCLDY    48  44  86 NW6       30.16R
$$




USA.gov is the U.S. government's official web portal to all federal, state and local government web resources and services.